Volver al catálogo

STARLINK-35450

ActivoComunicacionesVLEO
NORAD 65868·PAYLOAD·🇺🇸 United States

Lanzado Oct 3, 2025 desde Vandenberg Space Force Base

Loading…

Próximos Pases (próximas 24 horas)

TLE

ActualizadoSource: CelesTrak SupGP

Época: Sep 14, 2026, 14:29 UTC

1 65868C 25223Q   26257.60395833  .00046575  00000+0  13759-2 0  2576
2 65868  53.1560 133.0878 0001292 105.5189 125.5367 15.34371312    18

Sigue STARLINK-35450 en tiempo real con AllMySat

Download on the App Store